Time,TemperatureF,DewpointF,PressureIn,WindDirection,WindDirectionDegrees,WindSpeedMPH,WindSpeedGustMPH,Humidity,HourlyPrecipIn,Conditions,Clouds,dailyrainin,SolarRadiationWatts/m^2,SoftwareType,DateUTC
2013-02-14 00:05:00,63.3,58.4,25.95,East,80,0.0,0.0,84,0.00,,,0.00,0,Wunderground v.1.15,2013-02-14 06:05:00,
2013-02-14 00:10:00,63.3,58.4,25.95,East,90,1.0,2.0,84,0.00,,,0.00,0,Wunderground v.1.15,2013-02-14 06:10:00,
2013-02-14 00:20:00,63.6,58.7,25.95,East,90,1.0,1.0,84,0.00,,,0.00,0,Wunderground v.1.15,2013-02-14 06:20:00,
2013-02-14 00:25:00,63.6,58.3,25.95,East,92,1.0,1.0,83,0.00,,,0.00,0,Wunderground v.1.15,2013-02-14 06:25:00,
2013-02-14 00:35:00,63.8,58.2,25.94,East,92,1.0,1.0,82,0.00,,,0.00,0,Wunderground v.1.15,2013-02-14 06:35:00,
2013-02-14 00:40:00,63.8,58.2,25.94,East,93,0.0,0.0,82,0.00,,,0.00,0,Wunderground v.1.15,2013-02-14 06:40:00,
2013-02-14 00:50:00,63.9,58.0,25.94,WNW,295,1.0,1.0,81,0.00,,,0.00,0,Wunderground v.1.15,2013-02-14 06:50:00,
2013-02-14 01:00:00,63.9,58.0,25.94,East,101,1.0,1.0,81,0.00,,,0.00,0,Wunderground v.1.15,2013-02-14 07:00:00,
2013-02-14 01:10:00,63.9,58.0,25.93,East,94,1.0,1.0,81,0.00,,,0.00,0,Wunderground v.1.15,2013-02-14 07:10:00,
2013-02-14 01:15:00,63.9,57.6,25.93,ESE,116,1.0,4.0,80,0.00,,,0.00,0,Wunderground v.1.15,2013-02-14 07:15:00,
2013-02-14 01:25:00,64.1,57.8,25.93,North,5,0.0,1.0,80,0.00,,,0.00,0,Wunderground v.1.15,2013-02-14 07:25:00,
2013-02-14 01:30:00,64.2,57.9,25.93,ESE,116,1.0,1.0,80,0.00,,,0.00,0,Wunderground v.1.15,2013-02-14 07:30:00,
2013-02-14 01:35:00,64.2,57.9,25.93,ESE,107,1.0,1.0,80,0.00,,,0.00,0,Wunderground v.1.15,2013-02-14 07:35:00,
2013-02-14 01:45:00,64.2,57.9,25.93,ESE,103,1.0,4.0,80,0.00,,,0.00,0,Wunderground v.1.15,2013-02-14 07:45:00,
2013-02-14 01:55:00,64.2,57.9,25.92,East,88,1.0,1.0,80,0.00,,,0.00,0,Wunderground v.1.15,2013-02-14 07:55:00,
2013-02-14 02:05:00,64.1,57.5,25.92,East,84,0.0,1.0,79,0.00,,,0.00,0,Wunderground v.1.15,2013-02-14 08:05:00,
2013-02-14 02:15:00,63.8,57.2,25.92,East,84,0.0,0.0,79,0.00,,,0.00,0,Wunderground v.1.15,2013-02-14 08:15:00,
2013-02-14 02:25:00,63.4,57.1,25.92,East,84,0.0,0.0,80,0.00,,,0.00,0,Wunderground v.1.15,2013-02-14 08:25:00,
2013-02-14 02:35:00,63.1,56.8,25.92,East,84,0.0,0.0,80,0.00,,,0.00,0,Wunderground v.1.15,2013-02-14 08:35:00,
2013-02-14 02:40:00,63.0,56.4,25.92,East,84,0.0,0.0,79,0.00,,,0.00,0,Wunderground v.1.15,2013-02-14 08:40:00,
2013-02-14 02:45:00,62.8,55.8,25.92,East,84,0.0,0.0,78,0.00,,,0.00,0,Wunderground v.1.15,2013-02-14 08:45:00,
2013-02-14 02:55:00,62.5,55.5,25.92,East,84,1.0,2.0,78,0.00,,,0.00,0,Wunderground v.1.15,2013-02-14 08:55:00,
2013-02-14 03:00:00,62.5,55.5,25.92,East,84,0.0,0.0,78,0.00,,,0.00,0,Wunderground v.1.15,2013-02-14 09:00:00,
2013-02-14 03:11:00,62.2,55.3,25.92,East,84,1.0,1.0,78,0.00,,,0.00,0,Wunderground v.1.15,2013-02-14 09:11:00,
2013-02-14 03:20:00,62.2,55.6,25.92,East,84,0.0,0.0,79,0.00,,,0.00,0,Wunderground v.1.15,2013-02-14 09:20:00,
2013-02-14 03:25:00,62.0,55.4,25.92,East,84,0.0,0.0,79,0.00,,,0.00,0,Wunderground v.1.15,2013-02-14 09:25:00,
2013-02-14 03:35:00,61.9,55.3,25.92,East,84,0.0,0.0,79,0.00,,,0.00,0,Wunderground v.1.15,2013-02-14 09:35:00,
2013-02-14 03:45:00,61.7,55.5,25.92,East,84,0.0,0.0,80,0.00,,,0.00,0,Wunderground v.1.15,2013-02-14 09:45:00,
2013-02-14 03:55:00,61.9,56.0,25.92,ESE,120,1.0,1.0,81,0.00,,,0.00,0,Wunderground v.1.15,2013-02-14 09:55:00,
2013-02-14 04:05:00,62.0,55.8,25.92,ENE,71,0.0,2.0,80,0.00,,,0.00,0,Wunderground v.1.15,2013-02-14 10:05:00,
2013-02-14 04:15:00,62.0,55.4,25.92,ENE,71,0.0,0.0,79,0.00,,,0.00,0,Wunderground v.1.15,2013-02-14 10:15:00,
2013-02-14 04:20:00,62.0,55.4,25.92,ENE,71,0.0,1.0,79,0.00,,,0.00,0,Wunderground v.1.15,2013-02-14 10:20:00,
2013-02-14 04:30:00,61.9,55.3,25.92,ENE,71,0.0,0.0,79,0.00,,,0.00,0,Wunderground v.1.15,2013-02-14 10:30:00,
2013-02-14 04:40:00,61.7,55.5,25.93,ENE,71,0.0,0.0,80,0.00,,,0.00,0,Wunderground v.1.15,2013-02-14 10:40:00,
2013-02-14 04:50:00,61.5,55.3,25.93,ESE,121,0.0,1.0,80,0.00,,,0.00,0,Wunderground v.1.15,2013-02-14 10:50:00,
2013-02-14 05:00:00,61.7,55.1,25.93,ESE,121,1.0,1.0,79,0.00,,,0.00,0,Wunderground v.1.15,2013-02-14 11:00:00,
2013-02-14 05:05:00,61.9,55.7,25.93,ESE,121,1.0,1.0,80,0.00,,,0.00,0,Wunderground v.1.15,2013-02-14 11:05:00,
2013-02-14 05:15:00,62.2,56.0,25.93,ESE,121,1.0,1.0,80,0.00,,,0.00,0,Wunderground v.1.15,2013-02-14 11:15:00,
2013-02-14 05:25:00,62.8,56.5,25.94,SSE,151,1.0,1.0,80,0.00,,,0.00,0,Wunderground v.1.15,2013-02-14 11:25:00,
2013-02-14 05:30:00,63.0,56.4,25.94,SSE,151,0.0,0.0,79,0.00,,,0.00,0,Wunderground v.1.15,2013-02-14 11:30:00,
2013-02-14 05:40:00,63.0,56.7,25.94,SE,126,0.0,0.0,80,0.00,,,0.00,0,Wunderground v.1.15,2013-02-14 11:40:00,
2013-02-14 05:45:00,63.0,56.7,25.94,SE,126,0.0,1.0,80,0.00,,,0.00,0,Wunderground v.1.15,2013-02-14 11:45:00,
2013-02-14 05:55:00,63.0,56.4,25.95,ESE,119,1.0,2.0,79,0.00,,,0.00,0,Wunderground v.1.15,2013-02-14 11:55:00,
2013-02-14 06:05:00,63.0,56.7,25.95,ESE,105,1.0,1.0,80,0.00,,,0.00,14,Wunderground v.1.15,2013-02-14 12:05:00,
2013-02-14 06:10:00,62.8,56.5,25.95,ESE,105,1.0,1.0,80,0.00,,,0.00,21,Wunderground v.1.15,2013-02-14 12:10:00,
2013-02-14 06:15:00,62.8,56.9,25.95,ESE,105,0.0,1.0,81,0.00,,,0.00,33,Wunderground v.1.15,2013-02-14 12:15:00,
2013-02-14 06:25:00,63.0,57.1,25.96,ENE,77,0.0,1.0,81,0.00,,,0.00,46,Wunderground v.1.15,2013-02-14 12:25:00,
2013-02-14 06:35:00,63.6,55.9,25.96,ENE,77,0.0,2.0,76,0.00,,,0.00,56,Wunderground v.1.15,2013-02-14 12:35:00,
2013-02-14 06:40:00,64.1,56.0,25.96,ENE,77,1.0,1.0,75,0.00,,,0.00,53,Wunderground v.1.15,2013-02-14 12:40:00,
2013-02-14 06:50:00,64.4,56.3,25.97,ENE,74,1.0,2.0,75,0.00,,,0.00,70,Wunderground v.1.15,2013-02-14 12:50:00,
2013-02-14 06:55:00,64.6,56.9,25.97,ENE,74,1.0,2.0,76,0.00,,,0.00,79,Wunderground v.1.15,2013-02-14 12:55:00,
2013-02-14 07:00:00,64.7,57.3,25.97,East,90,1.0,1.0,77,0.00,,,0.00,88,Wunderground v.1.15,2013-02-14 13:00:00,
2013-02-14 07:10:00,65.2,57.4,25.98,East,89,1.0,1.0,76,0.00,,,0.00,127,Wunderground v.1.15,2013-02-14 13:10:00,
2013-02-14 07:20:00,65.5,57.7,25.98,ESE,104,2.0,5.0,76,0.00,,,0.00,116,Wunderground v.1.15,2013-02-14 13:20:00,
2013-02-14 07:25:00,65.5,57.7,25.98,North,360,2.0,5.0,76,0.00,,,0.00,130,Wunderground v.1.15,2013-02-14 13:25:00,
2013-02-14 07:35:00,65.9,58.1,25.98,ENE,73,1.0,1.0,76,0.00,,,0.00,269,Wunderground v.1.15,2013-02-14 13:35:00,
2013-02-14 07:45:00,67.5,58.2,25.98,SE,144,3.0,4.0,72,0.00,,,0.00,497,Wunderground v.1.15,2013-02-14 13:45:00,
2013-02-14 07:55:00,68.7,58.1,25.98,SE,144,2.0,7.0,69,0.00,,,0.00,320,Wunderground v.1.15,2013-02-14 13:55:00,
2013-02-14 08:05:00,69.7,58.3,25.98,SSE,153,3.0,3.0,67,0.00,,,0.00,287,Wunderground v.1.15,2013-02-14 14:05:00,
2013-02-14 08:10:00,70.2,58.3,25.98,SSE,163,2.0,4.0,66,0.00,,,0.00,315,Wunderground v.1.15,2013-02-14 14:10:00,
2013-02-14 08:20:00,70.7,57.9,25.99,SSE,157,3.0,3.0,64,0.00,,,0.00,592,Wunderground v.1.15,2013-02-14 14:20:00,
2013-02-14 08:25:00,71.2,58.0,25.99,SSE,148,3.0,4.0,63,0.00,,,0.00,631,Wunderground v.1.15,2013-02-14 14:25:00,
2013-02-14 08:35:00,72.4,58.2,25.99,SSE,156,2.0,3.0,61,0.00,,,0.00,294,Wunderground v.1.15,2013-02-14 14:35:00,
2013-02-14 08:45:00,70.3,58.4,25.99,SW,231,1.0,2.0,66,0.00,,,0.00,155,Wunderground v.1.15,2013-02-14 14:45:00,
2013-02-14 08:55:00,69.0,59.2,26.00,NNE,26,2.0,5.0,71,0.00,,,0.00,118,Wunderground v.1.15,2013-02-14 14:55:00,
2013-02-14 09:06:00,67.7,59.5,26.00,NNE,32,3.0,3.0,75,0.00,,,0.00,102,Wunderground v.1.15,2013-02-14 15:06:00,
2013-02-14 09:15:00,67.2,59.4,26.00,ESE,108,3.0,3.0,76,0.00,,,0.00,128,Wunderground v.1.15,2013-02-14 15:15:00,
2013-02-14 09:25:00,67.2,59.0,26.00,North,355,3.0,5.0,75,0.00,,,0.00,84,Wunderground v.1.15,2013-02-14 15:25:00,
2013-02-14 09:35:00,66.5,58.7,26.00,SW,219,4.0,4.0,76,0.00,,,0.00,114,Wunderground v.1.15,2013-02-14 15:35:00,
2013-02-14 09:40:00,66.5,58.7,26.00,North,11,3.0,3.0,76,0.00,,,0.00,141,Wunderground v.1.15,2013-02-14 15:40:00,
2013-02-14 09:50:00,66.3,57.4,26.00,NE,53,3.0,6.0,73,0.00,,,0.00,246,Wunderground v.1.15,2013-02-14 15:50:00,
2013-02-14 10:00:00,66.5,56.8,26.00,NNE,17,5.0,6.0,71,0.00,,,0.00,174,Wunderground v.1.15,2013-02-14 16:00:00,
2013-02-14 10:10:00,66.5,57.2,26.00,SE,126,4.0,4.0,72,0.00,,,0.00,139,Wunderground v.1.15,2013-02-14 16:10:00,
2013-02-14 10:20:00,66.5,58.0,26.00,SE,132,4.0,4.0,74,0.00,,,0.00,244,Wunderground v.1.15,2013-02-14 16:20:00,
2013-02-14 10:30:00,66.8,57.9,26.00,NNW,331,3.0,3.0,73,0.00,,,0.00,274,Wunderground v.1.15,2013-02-14 16:30:00,
2013-02-14 10:40:00,67.7,58.0,25.99,North,355,4.0,8.0,71,0.00,,,0.00,1222,Wunderground v.1.15,2013-02-14 16:40:00,
2013-02-14 10:46:00,69.3,57.9,25.99,ESE,103,4.0,8.0,67,0.00,,,0.00,1048,Wunderground v.1.15,2013-02-14 16:46:00,
2013-02-14 10:55:00,72.6,58.4,25.99,NW,317,4.0,6.0,61,0.00,,,0.00,1155,Wunderground v.1.15,2013-02-14 16:55:00,
2013-02-14 11:05:00,71.7,58.4,25.98,SSE,158,5.0,5.0,63,0.00,,,0.00,995,Wunderground v.1.15,2013-02-14 17:05:00,
2013-02-14 11:10:00,71.9,58.2,25.98,NE,46,4.0,5.0,62,0.00,,,0.00,339,Wunderground v.1.15,2013-02-14 17:10:00,
2013-02-14 11:15:00,71.4,58.1,25.98,ESE,109,4.0,5.0,63,0.00,,,0.00,679,Wunderground v.1.15,2013-02-14 17:15:00,
2013-02-14 11:25:00,73.4,58.2,25.97,NE,49,3.0,4.0,59,0.00,,,0.00,557,Wunderground v.1.15,2013-02-14 17:25:00,
2013-02-14 11:35:00,73.2,58.5,25.97,ENE,61,4.0,4.0,60,0.00,,,0.00,232,Wunderground v.1.15,2013-02-14 17:35:00,
2013-02-14 11:40:00,72.2,58.0,25.97,North,360,5.0,5.0,61,0.00,,,0.00,434,Wunderground v.1.15,2013-02-14 17:40:00,
2013-02-14 11:45:00,71.7,58.4,25.96,NNE,22,4.0,5.0,63,0.00,,,0.00,420,Wunderground v.1.15,2013-02-14 17:45:00,
2013-02-14 11:55:00,72.0,58.7,25.96,NNE,26,5.0,9.0,63,0.00,,,0.00,1090,Wunderground v.1.15,2013-02-14 17:55:00,
2013-02-14 12:05:00,72.2,58.5,25.96,ENE,69,6.0,6.0,62,0.00,,,0.00,313,Wunderground v.1.15,2013-02-14 18:05:00,
2013-02-14 12:15:00,72.2,58.5,25.96,WNW,292,5.0,6.0,62,0.00,,,0.00,269,Wunderground v.1.15,2013-02-14 18:15:00,
2013-02-14 12:26:00,72.9,58.7,25.95,NNW,342,4.0,4.0,61,0.00,,,0.00,925,Wunderground v.1.15,2013-02-14 18:26:00,
2013-02-14 12:35:00,73.6,58.9,25.95,SE,125,5.0,5.0,60,0.00,,,0.00,891,Wunderground v.1.15,2013-02-14 18:35:00,
2013-02-14 12:45:00,73.8,58.6,25.94,East,99,5.0,6.0,59,0.00,,,0.00,870,Wunderground v.1.15,2013-02-14 18:45:00,
2013-02-14 12:55:00,73.9,58.7,25.94,NE,42,5.0,7.0,59,0.00,,,0.00,856,Wunderground v.1.15,2013-02-14 18:55:00,
2013-02-14 13:05:00,74.6,58.8,25.93,North,360,4.0,5.0,58,0.00,,,0.00,860,Wunderground v.1.15,2013-02-14 19:05:00,
2013-02-14 13:15:00,75.0,59.2,25.93,ENE,63,5.0,5.0,58,0.00,,,0.00,942,Wunderground v.1.15,2013-02-14 19:15:00,
2013-02-14 13:25:00,74.3,60.0,25.92,NNE,32,5.0,7.0,61,0.00,,,0.00,308,Wunderground v.1.15,2013-02-14 19:25:00,
2013-02-14 13:35:00,73.4,59.6,25.92,SE,142,5.0,9.0,62,0.00,,,0.00,392,Wunderground v.1.15,2013-02-14 19:35:00,
2013-02-14 13:40:00,73.1,59.8,25.92,NNW,341,5.0,5.0,63,0.00,,,0.00,916,Wunderground v.1.15,2013-02-14 19:40:00,
2013-02-14 13:50:00,72.6,59.7,25.91,NW,325,5.0,5.0,64,0.00,,,0.00,285,Wunderground v.1.15,2013-02-14 19:50:00,
2013-02-14 14:00:00,72.0,60.0,25.91,East,84,5.0,5.0,66,0.00,,,0.00,295,Wunderground v.1.15,2013-02-14 20:00:00,
2013-02-14 14:05:00,72.0,59.2,25.91,NW,315,5.0,5.0,64,0.00,,,0.00,306,Wunderground v.1.15,2013-02-14 20:05:00,
2013-02-14 14:16:00,72.2,58.9,25.91,WSW,240,4.0,4.0,63,0.00,,,0.00,244,Wunderground v.1.15,2013-02-14 20:16:00,
2013-02-14 14:25:00,71.2,59.3,25.90,NW,320,5.0,7.0,66,0.00,,,0.00,288,Wunderground v.1.15,2013-02-14 20:25:00,
2013-02-14 14:35:00,70.7,58.8,25.90,NW,312,6.0,9.0,66,0.00,,,0.00,206,Wunderground v.1.15,2013-02-14 20:35:00,
2013-02-14 14:40:00,70.5,59.0,25.90,WSW,240,6.0,6.0,67,0.00,,,0.00,195,Wunderground v.1.15,2013-02-14 20:40:00,
2013-02-14 14:45:00,70.3,58.8,25.90,NW,324,5.0,6.0,67,0.00,,,0.00,664,Wunderground v.1.15,2013-02-14 20:45:00,
2013-02-14 14:55:00,71.0,58.6,25.89,SE,128,6.0,10.0,65,0.00,,,0.00,603,Wunderground v.1.15,2013-02-14 20:55:00,
2013-02-14 15:05:00,70.7,58.8,25.89,South,178,6.0,7.0,66,0.00,,,0.00,162,Wunderground v.1.15,2013-02-14 21:05:00,
2013-02-14 15:15:00,70.0,58.5,25.89,North,10,5.0,8.0,67,0.00,,,0.00,149,Wunderground v.1.15,2013-02-14 21:15:00,
2013-02-14 15:25:00,69.2,58.6,25.90,North,360,5.0,5.0,69,0.00,,,0.00,139,Wunderground v.1.15,2013-02-14 21:25:00,
2013-02-14 15:35:00,68.3,58.5,25.90,East,95,5.0,5.0,71,0.00,,,0.00,100,Wunderground v.1.15,2013-02-14 21:35:00,
2013-02-14 15:46:00,67.8,58.8,25.90,ENE,69,5.0,6.0,73,0.00,,,0.00,91,Wunderground v.1.15,2013-02-14 21:46:00,
2013-02-14 15:55:00,67.5,58.9,25.90,NNE,22,4.0,5.0,74,0.00,,,0.00,86,Wunderground v.1.15,2013-02-14 21:55:00,
2013-02-14 16:05:00,66.8,59.0,25.90,North,5,4.0,5.0,76,0.00,,,0.00,90,Wunderground v.1.15,2013-02-14 22:05:00,
2013-02-14 16:10:00,66.7,58.9,25.90,NE,42,4.0,4.0,76,0.00,,,0.00,83,Wunderground v.1.15,2013-02-14 22:10:00,
2013-02-14 16:20:00,66.7,58.9,25.90,NNE,32,3.0,3.0,76,0.00,,,0.00,76,Wunderground v.1.15,2013-02-14 22:20:00,
2013-02-14 16:30:00,66.5,58.7,25.91,North,360,4.0,4.0,76,0.00,,,0.00,67,Wunderground v.1.15,2013-02-14 22:30:00,
2013-02-14 16:35:00,66.5,58.7,25.91,NNE,32,4.0,6.0,76,0.00,,,0.00,63,Wunderground v.1.15,2013-02-14 22:35:00,
2013-02-14 16:45:00,66.7,58.9,25.91,East,87,3.0,6.0,76,0.00,,,0.00,33,Wunderground v.1.15,2013-02-14 22:45:00,
2013-02-14 16:55:00,66.5,58.7,25.92,SE,130,3.0,3.0,76,0.00,,,0.00,25,Wunderground v.1.15,2013-02-14 22:55:00,
2013-02-14 17:05:00,66.2,58.8,25.92,ESE,123,3.0,6.0,77,0.00,,,0.00,25,Wunderground v.1.15,2013-02-14 23:05:00,
2013-02-14 17:15:00,66.3,58.9,25.92,NNE,28,3.0,3.0,77,0.00,,,0.00,12,Wunderground v.1.15,2013-02-14 23:15:00,
2013-02-14 17:20:00,66.3,58.9,25.92,East,88,3.0,3.0,77,0.00,,,0.00,7,Wunderground v.1.15,2013-02-14 23:20:00,
2013-02-14 17:30:00,66.2,58.8,25.92,ESE,121,2.0,2.0,77,0.00,,,0.00,7,Wunderground v.1.15,2013-02-14 23:30:00,
2013-02-14 17:35:00,66.2,58.8,25.93,NNW,332,2.0,2.0,77,0.00,,,0.00,0,Wunderground v.1.15,2013-02-14 23:35:00,
2013-02-14 17:45:00,66.2,58.8,25.93,SE,132,2.0,4.0,77,0.00,,,0.00,0,Wunderground v.1.15,2013-02-14 23:45:00,
2013-02-14 17:55:00,66.3,58.9,25.93,NNW,344,2.0,3.0,77,0.00,,,0.00,0,Wunderground v.1.15,2013-02-14 23:55:00,
2013-02-14 18:05:00,66.3,58.9,25.93,SE,127,1.0,2.0,77,0.00,,,0.00,0,Wunderground v.1.15,2013-02-15 00:05:00,
2013-02-14 18:15:00,66.2,59.1,25.93,East,90,1.0,4.0,78,0.00,,,0.00,0,Wunderground v.1.15,2013-02-15 00:15:00,
2013-02-14 18:20:00,66.0,58.9,25.94,East,81,2.0,2.0,78,0.00,,,0.00,0,Wunderground v.1.15,2013-02-15 00:20:00,
2013-02-14 18:30:00,65.9,59.2,25.94,NW,319,2.0,2.0,79,0.00,,,0.00,0,Wunderground v.1.15,2013-02-15 00:30:00,
2013-02-14 18:40:00,65.7,59.0,25.94,SE,139,1.0,1.0,79,0.00,,,0.00,0,Wunderground v.1.15,2013-02-15 00:40:00,
2013-02-14 18:45:00,65.5,58.8,25.95,NE,44,2.0,2.0,79,0.00,,,0.00,0,Wunderground v.1.15,2013-02-15 00:45:00,
2013-02-14 18:55:00,65.4,59.1,25.95,ESE,120,2.0,2.0,80,0.00,,,0.00,0,Wunderground v.1.15,2013-02-15 00:55:00,
2013-02-14 19:00:00,65.2,58.9,25.95,SE,138,1.0,2.0,80,0.00,,,0.00,0,Wunderground v.1.15,2013-02-15 01:00:00,
2013-02-14 19:10:00,65.2,58.9,25.95,NE,42,2.0,2.0,80,0.00,,,0.00,0,Wunderground v.1.15,2013-02-15 01:10:00,
2013-02-14 19:20:00,65.7,58.3,25.96,SSE,149,3.0,6.0,77,0.00,,,0.00,0,Wunderground v.1.15,2013-02-15 01:20:00,
2013-02-14 19:25:00,65.7,58.7,25.96,SSE,151,3.0,6.0,78,0.00,,,0.00,0,Wunderground v.1.15,2013-02-15 01:25:00,
2013-02-14 19:30:00,65.7,58.7,25.96,South,174,3.0,4.0,78,0.00,,,0.00,0,Wunderground v.1.15,2013-02-15 01:30:00,
2013-02-14 19:40:00,65.7,58.7,25.96,ESE,121,1.0,1.0,78,0.00,,,0.00,0,Wunderground v.1.15,2013-02-15 01:40:00,
2013-02-14 19:45:00,65.5,58.5,25.97,SSE,149,2.0,5.0,78,0.00,,,0.00,0,Wunderground v.1.15,2013-02-15 01:45:00,
2013-02-14 19:55:00,65.4,58.7,25.97,SSE,159,2.0,4.0,79,0.00,,,0.00,0,Wunderground v.1.15,2013-02-15 01:55:00,
2013-02-14 20:05:00,65.2,58.5,25.97,ESE,112,2.0,2.0,79,0.00,,,0.00,0,Wunderground v.1.15,2013-02-15 02:05:00,
2013-02-14 20:15:00,65.2,58.2,25.97,ESE,121,2.0,4.0,78,0.00,,,0.00,0,Wunderground v.1.15,2013-02-15 02:15:00,
2013-02-14 20:20:00,65.4,58.0,25.98,SE,136,2.0,2.0,77,0.00,,,0.00,0,Wunderground v.1.15,2013-02-15 02:20:00,
2013-02-14 20:25:00,65.5,58.1,25.98,SSE,149,3.0,4.0,77,0.00,,,0.00,0,Wunderground v.1.15,2013-02-15 02:25:00,
2013-02-14 20:35:00,65.4,58.0,25.98,East,98,2.0,4.0,77,0.00,,,0.00,0,Wunderground v.1.15,2013-02-15 02:35:00,
2013-02-14 20:45:00,65.4,58.0,25.98,SSW,205,2.0,4.0,77,0.00,,,0.00,0,Wunderground v.1.15,2013-02-15 02:45:00,
2013-02-14 20:55:00,65.4,58.0,25.99,SSE,151,3.0,4.0,77,0.00,,,0.00,0,Wunderground v.1.15,2013-02-15 02:55:00,
2013-02-14 21:00:00,65.5,57.7,25.99,SSE,153,2.0,2.0,76,0.00,,,0.00,0,Wunderground v.1.15,2013-02-15 03:00:00,
2013-02-14 21:05:00,65.5,57.7,25.99,ESE,102,2.0,2.0,76,0.00,,,0.00,0,Wunderground v.1.15,2013-02-15 03:05:00,
2013-02-14 21:15:00,65.4,57.6,25.99,SE,136,2.0,2.0,76,0.00,,,0.00,0,Wunderground v.1.15,2013-02-15 03:15:00,
2013-02-14 21:25:00,65.1,57.3,25.99,ENE,76,3.0,4.0,76,0.00,,,0.00,0,Wunderground v.1.15,2013-02-15 03:25:00,
2013-02-14 21:35:00,65.1,57.7,25.98,ENE,65,2.0,3.0,77,0.00,,,0.00,0,Wunderground v.1.15,2013-02-15 03:35:00,
2013-02-14 21:45:00,65.1,57.7,25.98,ESE,123,1.0,2.0,77,0.00,,,0.00,0,Wunderground v.1.15,2013-02-15 03:45:00,
2013-02-14 21:55:00,64.9,57.5,25.99,SE,124,1.0,1.0,77,0.00,,,0.00,0,Wunderground v.1.15,2013-02-15 03:55:00,
2013-02-14 22:00:00,64.9,57.5,25.99,ENE,70,1.0,1.0,77,0.00,,,0.00,0,Wunderground v.1.15,2013-02-15 04:00:00,
2013-02-14 22:10:00,64.7,57.7,25.99,ENE,76,1.0,1.0,78,0.00,,,0.00,0,Wunderground v.1.15,2013-02-15 04:10:00,
2013-02-14 22:20:00,64.6,57.2,25.98,NE,54,1.0,1.0,77,0.00,,,0.00,0,Wunderground v.1.15,2013-02-15 04:20:00,
2013-02-14 22:30:00,64.7,57.3,25.98,ENE,71,2.0,2.0,77,0.00,,,0.00,0,Wunderground v.1.15,2013-02-15 04:30:00,
2013-02-14 22:40:00,64.6,57.2,25.98,ESE,115,2.0,2.0,77,0.00,,,0.00,0,Wunderground v.1.15,2013-02-15 04:40:00,
2013-02-14 22:45:00,64.6,57.2,25.98,SE,138,2.0,2.0,77,0.00,,,0.00,0,Wunderground v.1.15,2013-02-15 04:45:00,
2013-02-14 22:55:00,64.7,57.0,25.98,East,89,1.0,2.0,76,0.00,,,0.00,0,Wunderground v.1.15,2013-02-15 04:55:00,
2013-02-14 23:00:00,64.6,56.9,25.98,East,89,0.0,0.0,76,0.00,,,0.00,0,Wunderground v.1.15,2013-02-15 05:00:00,
2013-02-14 23:10:00,64.2,56.8,25.98,ESE,105,0.0,0.0,77,0.00,,,0.00,0,Wunderground v.1.15,2013-02-15 05:10:00,
2013-02-14 23:15:00,64.1,56.7,25.98,East,85,0.0,0.0,77,0.00,,,0.00,0,Wunderground v.1.15,2013-02-15 05:15:00,
2013-02-14 23:25:00,63.9,56.5,25.98,SE,143,1.0,1.0,77,0.00,,,0.00,0,Wunderground v.1.15,2013-02-15 05:25:00,
2013-02-14 23:30:00,63.9,56.9,25.98,SSE,156,1.0,5.0,78,0.00,,,0.00,0,Wunderground v.1.15,2013-02-15 05:30:00,
2013-02-14 23:40:00,63.9,56.9,25.97,SSE,167,2.0,4.0,78,0.00,,,0.00,0,Wunderground v.1.15,2013-02-15 05:40:00,
2013-02-14 23:45:00,63.9,56.9,25.97,SSE,148,2.0,4.0,78,0.00,,,0.00,0,Wunderground v.1.15,2013-02-15 05:45:00,
2013-02-14 23:55:00,63.9,56.5,25.96,SE,145,3.0,5.0,77,0.00,,,0.00,0,Wunderground v.1.15,2013-02-15 05:55:00,